Stündliche Wetter Cechyny

Heute, 27 Januar, Mittwoch

Zeit Temperatur Niederschläge Wind Luftdruck Luftfeuchtigkeit
00:00 -3°C° 0 mm 4 m/S 738 mmHg 86%
01:00 -3°C° 0 mm 4 m/S 738 mmHg 88%
02:00 -3°C° 0 mm 4 m/S 738 mmHg 87%
03:00 -4°C° 0 mm 5 m/S 738 mmHg 87%
04:00 -4°C° 0 mm 5 m/S 738 mmHg 86%
05:00 -4°C° 0 mm 5 m/S 738 mmHg 87%
06:00 -4°C° 0 mm 4 m/S 738 mmHg 87%
07:00 -4°C° 0 mm 4 m/S 738 mmHg 87%
08:00 -3°C° 0 mm 4 m/S 739 mmHg 85%
09:00 -3°C° 0 mm 4 m/S 739 mmHg 83%
10:00 -2°C° 0 mm 4 m/S 739 mmHg 81%
11:00 -2°C° 0 mm 4 m/S 739 mmHg 80%
12:00 -1°C° 0 mm 4 m/S 739 mmHg 80%
13:00 -1°C° 0 mm 4 m/S 739 mmHg 79%
14:00 0°C° 0 mm 3 m/S 739 mmHg 83%
15:00 -1°C° 0 mm 3 m/S 739 mmHg 87%
16:00 -1°C° 0 mm 2 m/S 739 mmHg 91%
17:00 -2°C° 0 mm 2 m/S 739 mmHg 92%
18:00 -3°C° 0 mm 2 m/S 739 mmHg 93%
19:00 -4°C° 0 mm 2 m/S 739 mmHg 94%
20:00 -3°C° 0 mm 2 m/S 739 mmHg 94%
21:00 -3°C° 0 mm 2 m/S 739 mmHg 93%
22:00 -4°C° 0 mm 3 m/S 739 mmHg 93%
23:00 -2°C° 0 mm 3 m/S 738 mmHg 90%

Morgen, 28 Januar, Donnerstag

Zeit Temperatur Niederschläge Wind Luftdruck Luftfeuchtigkeit
00:00 -2°C° 0 mm 3 m/S 738 mmHg 87%
01:00 -2°C° 0 mm 3 m/S 738 mmHg 85%
02:00 -2°C° 0 mm 3 m/S 737 mmHg 86%
03:00 -3°C° 0 mm 4 m/S 736 mmHg 87%
04:00 -3°C° 0 mm 4 m/S 736 mmHg 88%
05:00 -3°C° 0.4 mm 4 m/S 735 mmHg 90%
06:00 -4°C° 0.4 mm 5 m/S 734 mmHg 92%
07:00 -5°C° 0.4 mm 6 m/S 733 mmHg 94%
08:00 -4°C° 0.4 mm 6 m/S 733 mmHg 94%
09:00 -4°C° 0.4 mm 6 m/S 732 mmHg 94%
10:00 -4°C° 0.4 mm 6 m/S 732 mmHg 94%
11:00 -4°C° 0.4 mm 6 m/S 732 mmHg 94%
12:00 -3°C° 0.4 mm 6 m/S 731 mmHg 93%
13:00 -3°C° 0.4 mm 7 m/S 731 mmHg 92%
14:00 -4°C° 0.1 mm 6 m/S 731 mmHg 90%
15:00 -4°C° 0.1 mm 6 m/S 731 mmHg 88%
16:00 -4°C° 0.1 mm 5 m/S 731 mmHg 85%
17:00 -5°C° 0.1 mm 5 m/S 731 mmHg 86%
18:00 -5°C° 0.1 mm 5 m/S 731 mmHg 87%
19:00 -5°C° 0.1 mm 4 m/S 731 mmHg 87%
20:00 -5°C° 0.1 mm 4 m/S 731 mmHg 87%
21:00 -5°C° 0.1 mm 4 m/S 731 mmHg 87%
22:00 -5°C° 0.1 mm 4 m/S 731 mmHg 87%
23:00 -5°C° 0 mm 4 m/S 731 mmHg 86%

übermorgen, 29 Januar, Freitag

Zeit Temperatur Niederschläge Wind Luftdruck Luftfeuchtigkeit
00:00 -5°C° 0 mm 4 m/S 731 mmHg 85%
01:00 -6°C° 0 mm 5 m/S 731 mmHg 84%
02:00 -6°C° 0 mm 5 m/S 731 mmHg 84%
03:00 -6°C° 0 mm 5 m/S 731 mmHg 83%
04:00 -6°C° 0 mm 5 m/S 731 mmHg 83%
05:00 -6°C° 0 mm 5 m/S 731 mmHg 83%
06:00 -6°C° 0 mm 5 m/S 730 mmHg 83%
07:00 -5°C° 0 mm 4 m/S 730 mmHg 84%
08:00 -5°C° 0 mm 4 m/S 730 mmHg 82%
09:00 -4°C° 0 mm 4 m/S 730 mmHg 81%
10:00 -4°C° 0 mm 4 m/S 730 mmHg 80%
11:00 -4°C° 0 mm 4 m/S 730 mmHg 79%
12:00 -4°C° 0 mm 4 m/S 730 mmHg 78%
13:00 -3°C° 0 mm 4 m/S 730 mmHg 76%
14:00 -4°C° 0 mm 4 m/S 730 mmHg 78%
15:00 -4°C° 0 mm 3 m/S 729 mmHg 81%
16:00 -5°C° 0 mm 3 m/S 729 mmHg 83%
17:00 -5°C° 0 mm 3 m/S 729 mmHg 86%
18:00 -4°C° 0 mm 2 m/S 729 mmHg 89%
19:00 -5°C° 0 mm 2 m/S 729 mmHg 92%
20:00 -4°C° 0 mm 2 m/S 729 mmHg 93%
21:00 -4°C° 0 mm 2 m/S 729 mmHg 94%
22:00 -4°C° 0 mm 2 m/S 729 mmHg 94%
23:00 -4°C° 0.1 mm 2 m/S 729 mmHg 95%

30 Januar, Samstag

Zeit Temperatur Niederschläge Wind Luftdruck Luftfeuchtigkeit
00:00 -4°C° 0.1 mm 2 m/S 729 mmHg 95%
01:00 -3°C° 0.1 mm 2 m/S 729 mmHg 95%
02:00 -3°C° 0.5 mm 2 m/S 729 mmHg 95%
03:00 -4°C° 0.5 mm 3 m/S 729 mmHg 95%
04:00 -4°C° 0.5 mm 3 m/S 729 mmHg 94%
05:00 -5°C° 0.3 mm 3 m/S 729 mmHg 92%
06:00 -5°C° 0.3 mm 3 m/S 729 mmHg 90%
07:00 -5°C° 0.3 mm 3 m/S 729 mmHg 88%
08:00 -5°C° 0 mm 4 m/S 730 mmHg 85%
09:00 -5°C° 0 mm 4 m/S 730 mmHg 82%
10:00 -6°C° 0 mm 5 m/S 730 mmHg 78%
11:00 -5°C° 0 mm 5 m/S 730 mmHg 77%
12:00 -5°C° 0 mm 5 m/S 730 mmHg 75%
13:00 -5°C° 0 mm 5 m/S 731 mmHg 74%
14:00 -5°C° 0 mm 5 m/S 731 mmHg 75%
15:00 -6°C° 0 mm 5 m/S 731 mmHg 76%
16:00 -5°C° 0 mm 4 m/S 731 mmHg 78%
17:00 -5°C° 0 mm 4 m/S 731 mmHg 80%
18:00 -5°C° 0 mm 4 m/S 731 mmHg 82%
19:00 -5°C° 0 mm 4 m/S 731 mmHg 84%
20:00 -5°C° 0 mm 4 m/S 731 mmHg 85%
21:00 -5°C° 0 mm 4 m/S 731 mmHg 85%
22:00 -5°C° 0 mm 4 m/S 731 mmHg 85%
23:00 -5°C° 0 mm 4 m/S 731 mmHg 85%

31 Januar, Sonntag

Zeit Temperatur Niederschläge Wind Luftdruck Luftfeuchtigkeit
00:00 -5°C° 0 mm 4 m/S 732 mmHg 85%
01:00 -5°C° 0 mm 4 m/S 732 mmHg 85%
02:00 -7°C° 0 mm 4 m/S 732 mmHg 84%
03:00 -7°C° 0 mm 4 m/S 732 mmHg 83%
04:00 -7°C° 0 mm 4 m/S 732 mmHg 82%
05:00 -7°C° 0 mm 4 m/S 732 mmHg 82%
06:00 -7°C° 0 mm 4 m/S 732 mmHg 82%
07:00 -7°C° 0 mm 4 m/S 732 mmHg 82%
08:00 -5°C° 0 mm 4 m/S 733 mmHg 82%
09:00 -4°C° 0 mm 4 m/S 733 mmHg 83%
10:00 -4°C° 0 mm 4 m/S 733 mmHg 83%
11:00 -3°C° 0.1 mm 4 m/S 733 mmHg 85%
12:00 -3°C° 0.1 mm 4 m/S 733 mmHg 86%
13:00 -2°C° 0.1 mm 5 m/S 733 mmHg 88%
14:00 -4°C° 0.1 mm 5 m/S 733 mmHg 88%
15:00 -3°C° 0.1 mm 4 m/S 733 mmHg 88%
16:00 -3°C° 0.1 mm 4 m/S 733 mmHg 87%
17:00 -4°C° 0 mm 4 m/S 733 mmHg 89%
18:00 -4°C° 0 mm 4 m/S 734 mmHg 90%
19:00 -4°C° 0 mm 4 m/S 734 mmHg 92%
20:00 -4°C° 0 mm 4 m/S 734 mmHg 92%
21:00 -4°C° 0 mm 4 m/S 734 mmHg 92%
22:00 -4°C° 0 mm 3 m/S 734 mmHg 92%
23:00 -5°C° 0 mm 3 m/S 734 mmHg 93%

1 Februar, Montag

Zeit Temperatur Niederschläge Wind Luftdruck Luftfeuchtigkeit
00:00 -5°C° 0 mm 3 m/S 734 mmHg 94%
01:00 -6°C° 0 mm 3 m/S 734 mmHg 95%
02:00 -6°C° 0 mm 3 m/S 734 mmHg 95%
03:00 -6°C° 0 mm 3 m/S 734 mmHg 96%
04:00 -7°C° 0 mm 3 m/S 734 mmHg 96%
05:00 -7°C° 0 mm 3 m/S 735 mmHg 96%
06:00 -7°C° 0 mm 3 m/S 735 mmHg 96%
07:00 -7°C° 0 mm 3 m/S 735 mmHg 96%
08:00 -6°C° 0 mm 3 m/S 735 mmHg 94%
09:00 -5°C° 0 mm 3 m/S 735 mmHg 93%
10:00 -5°C° 0 mm 3 m/S 736 mmHg 92%
11:00 -4°C° 0 mm 3 m/S 736 mmHg 89%
12:00 -3°C° 0 mm 4 m/S 736 mmHg 86%
13:00 -3°C° 0 mm 4 m/S 736 mmHg 84%
14:00 -2°C° 0 mm 3 m/S 736 mmHg 85%
15:00 -4°C° 0 mm 3 m/S 736 mmHg 85%
16:00 -4°C° 0 mm 3 m/S 736 mmHg 86%
17:00 -3°C° 0 mm 2 m/S 736 mmHg 87%
18:00 -4°C° 0 mm 2 m/S 736 mmHg 87%
19:00 -5°C° 0 mm 2 m/S 737 mmHg 87%
20:00 -5°C° 0 mm 2 m/S 737 mmHg 84%
21:00 -5°C° 0 mm 2 m/S 737 mmHg 82%
22:00 -5°C° 0 mm 2 m/S 737 mmHg 79%
23:00 -6°C° 0 mm 2 m/S 737 mmHg 78%
Mehr zeigen

Wir brauchen deine Erlaubnis

Meteoprog und unser Service Anbieter werden persönliche Daten aufbewahren, so wie Cookies, Geräte Bezeichnung oder ähnliche Technologien von deinem Gerät und Prozess, so wie Persönliche Daten Inhalte und Werbungen, genauso wie social Media und den Verkehr zu analysieren.

  • Aufbewahrung und/oder Zugang zu deiner Geräte Informationen.

    Cookies, Geräte Bezeichnung oder andere Informationen, können aufbewahrt oder Zugang zu deinem Gerät erhalten, für den Grund, der oben angegeben wird.

  • Personalisierte Werbung und Inhalte, Messungen, Einblick in das Publikum und Produkt Entwicklung.

    Werbungen und Inhalte können personalisiert werden, basierend auf ein Profil. Mehr Daten können besser personalisierte Werbungen und Inhalte hinzufügen. Werbung und Inhalte können gezeigt und gemessen werden. Einblicke über das Publikum, welche die Werbung gesehen haben und den Inhalt, können abgeleitet werden. So wie Daten können genutzt werden, um es zu verbessern oder die Benutzer Erfahrung zu verbessern das System und die Software.

Wenn du “Ich stimme zu” klickst, erlaubst du uns, die Cookies zu benutzen die Geräte Bezeichnung, den Web oder ähnliche Technologien zu benutzen. Deine Settings, können in deinem Gerät bei deinem Browser geändert werden.

Für den bestimmten Zweck, berechtigten Interessen beruhen darauf, mehr als auf den Inhalt. Du kannst mehr darüber in unseren Privaten und Cookie Politik lesen.